SCP
0 -0 0 -0 0 0 0 0 0 0 0 0 0 0 0 0 0 0 0 0 0 0 0 -0 -0 0 -0 -0 -0 -0 -1 -0
0 0 0 0 0 0 0 0 0 0 0 0 0 0 0 0 0 0 0 0 0 0 0 0 0 0 0 0 -0 -0 -0 -0
0 -0 -0 0 0 0 0 0 0 0 0 0 0 0 0 0 -0 -0 -0 0 0 0 0 0 0 0 1 1 -0 -0 -0 -0
0 0 0 0 0 0 0 0 0 0 0 0 0 0 0 0 -0 0 -0 0 0 0 0 0 0 1 -0 0 0 -0 -0 -0
0 0 0 0 0 0 0 0 0 0 0 0 0 0 0 0 0 0 0 0 -0 -0 -0 -0 -0 0 -0 0 -0 0 -0 -0
0 0 0 0 0 0 0 0 0 0 0 0 0 0 0 0 0 1 1 0 0 0 0 0 -0 0 0 0 0 0 0 0
0 0 0 0 0 0 0 0 0 0 0 0 0 0 0 0 0 1 1 0 0 0 0 0 0 0 0 0 0 0 0 0
0 0 0 0 0 0 0 0 0 0 0 0 0 0 0 0 0 0 0 0 0 0 0 0 0 0 0 0 0 0 -0 0
0 0 0 0 0 0 0 0 0 0 0 0 0 0 0 0 0 0 0 0 0 0 0 0 0 0 -0 -0 -0 0 0 -0
0 0 0 0 0 0 0 0 0 0 0 0 0 0 0 0 0 0 0 0 0 0 0 0 0 0 0 0 0 0 0 0
0 0 0 0 0 0 0 0 0 0 0 0 0 0 0 0 0 0 0 0 0 0 0 0 0 0 0 0 0 0 0 0
0 0 0 0 0 0 0 0 0 0 0 0 0 0 0 0 0 0 0 0 0 0 -0 -0 0 0 0 0 0 0 0 1
0 0 0 0 0 0 0 0 0 0 0 0 0 0 0 0 0 0 0 0 0 0 0 0 0 0 0 0 0 0 0 -0
0 0 0 0 0 0 0 0 0 0 0 0 0 0 0 0 0 0 0 0 0 0 0 0 0 0 0 0 0 0 0 -0
0 0 0 0 0 0 0 0 0 0 0 0 0 0 0 0 0 0 0 0 0 0 0 0 0 0 0 0 0 0 0 0
0 0 0 0 0 0 0 0 0 0 0 0 0 0 0 0 0 0 0 0 0 0 0 0 0 0 0 0 0 0 0 0
0 0 0 -0 0 0 0 0 0 0 0 0 0 0 0 0 0 0 0 0 0 0 0 0 0 0 0 0 0 0 0 0
0 -0 0 0 0 0 0 0 0 0 0 0 0 0 0 0 0 0 0 0 0 0 0 0 0 0 0 0 0 0 0 0
0 0 0 0 0 0 0 0 0 0 0 0 0 0 0 0 0 0 0 0 0 0 0 0 0 0 0 0 0 0 0 0
Wind_Speed_500mb
6 7 10 1 6 6 11 3 4 7 3 4 9 20 32 38 53 46 47 53 60 43 13 28 46 59 61 62 63 61 54 46
11 14 15 14 5 9 9 1 5 9 9 8 6 12 13 20 35 55 56 55 56 52 17 23 45 58 68 69 69 68 62 55
5 9 2 11 9 9 8 7 7 4 11 11 10 3 6 9 40 49 54 60 68 55 18 22 44 51 54 62 63 68 67 65
3 4 6 10 5 8 9 12 4 8 11 8 12 11 8 15 27 36 47 46 51 50 27 22 36 43 35 25 42 59 67 69
17 12 12 12 8 4 6 5 7 5 11 6 10 17 17 24 33 33 33 33 47 48 34 24 23 22 22 34 37 46 60 70
12 12 7 4 6 4 6 4 5 10 12 14 8 7 8 25 43 44 38 34 35 28 7 14 21 24 31 35 35 42 53 66
8 5 6 10 5 3 5 10 10 13 8 10 12 9 17 46 39 44 40 36 33 27 21 22 23 28 36 30 45 43 39 57
4 7 1 3 5 8 1 4 13 8 5 11 19 44 41 31 34 33 34 29 24 21 22 22 26 25 27 31 16 42 44 50
10 5 6 5 3 9 7 5 7 5 3 9 17 24 29 32 32 32 23 20 17 16 13 11 13 19 27 35 32 26 33 62
6 5 2 9 7 20 22 8 11 10 10 10 11 20 29 28 25 19 19 20 16 12 11 12 14 19 22 28 33 37 34 39
7 8 5 8 4 2 4 3 4 4 10 21 29 13 12 22 22 21 26 24 22 23 21 21 24 27 29 31 30 37 43 37
5 6 13 2 10 18 7 2 3 8 9 16 21 8 10 32 38 35 34 35 41 41 41 43 41 42 40 42 43 38 45 43
1 4 1 8 21 23 6 6 9 9 16 19 8 23 43 49 50 47 47 49 42 38 43 51 54 50 51 53 51 38 38 43
1 1 8 15 4 5 5 4 19 24 34 38 51 58 61 60 62 61 59 57 54 56 55 50 47 49 46 51 56 49 38 39
10 8 6 3 5 13 12 39 43 47 56 59 61 68 71 75 74 73 69 65 59 59 60 59 55 58 62 54 52 51 47 37
5 5 10 19 24 20 40 44 44 46 52 56 66 70 74 76 74 74 74 75 67 58 62 64 62 62 61 56 54 48 49 40
7 13 25 13 16 40 49 49 53 54 55 57 61 70 75 77 82 83 79 67 58 58 62 65 64 64 58 53 48 48 45 45
9 15 19 38 53 55 57 63 68 69 69 68 66 70 70 75 73 74 74 67 59 63 66 69 70 71 67 60 58 52 52 45
10 18 29 47 58 65 67 76 75 76 74 75 76 70 64 66 68 68 69 68 66 64 61 63 70 69 64 61 58 53 52 48
Wind_Direction_500mb
354 85 105 26 3 196 109 56 6 295 206 335 356 31 45 55 68 91 127 147 139 132 96 268 235 236 233 232 232 232 233 233
312 47 19 97 182 24 9 287 279 293 286 228 324 38 25 43 73 103 133 143 147 147 126 245 235 239 231 232 234 236 238 242
44 34 29 17 16 39 114 125 165 279 267 201 194 225 80 91 103 120 143 153 158 169 178 175 246 241 242 232 237 240 241 243
149 305 355 88 93 106 109 295 186 158 273 253 197 211 222 117 116 117 149 163 178 189 178 209 227 229 243 254 254 253 247 245
346 358 8 55 0 103 108 85 239 128 269 235 263 284 89 142 131 124 125 148 188 196 205 229 247 273 291 261 273 275 255 244
187 200 157 74 351 81 109 116 272 230 286 275 307 30 118 134 130 124 112 122 151 175 193 329 313 316 296 274 247 264 258 244
233 232 192 185 183 260 210 222 188 257 266 335 331 329 185 139 119 115 109 101 95 93 66 28 5 357 358 312 249 248 256 253
268 228 329 222 307 254 35 345 260 78 68 353 29 78 75 84 98 100 104 101 89 70 47 18 5 10 8 359 310 256 253 254
247 318 332 339 246 102 108 4 247 146 340 351 40 57 62 60 62 63 77 88 92 94 78 20 1 352 353 356 341 320 291 252
210 43 233 269 83 112 110 40 9 46 25 38 106 106 65 38 30 40 35 32 34 35 33 12 344 327 332 335 332 327 315 299
151 184 270 155 297 67 157 205 334 40 355 8 4 271 238 21 22 8 352 343 335 341 333 325 327 327 314 312 324 321 317 324
126 167 214 313 317 336 152 253 279 354 1 343 352 344 264 320 323 316 311 300 302 302 306 306 304 300 297 301 306 313 316 315
77 235 11 323 304 322 179 239 353 344 321 312 279 266 293 293 296 298 297 295 292 292 288 289 292 295 287 288 287 292 299 311
48 263 256 349 323 5 180 45 329 306 305 295 293 290 288 286 285 285 285 285 289 290 284 278 281 290 293 285 290 289 285 298
170 225 206 338 154 163 339 330 320 308 307 306 295 290 291 292 291 288 286 285 286 281 283 283 285 282 285 283 288 285 279 287
53 237 242 298 274 248 315 308 303 302 302 300 294 294 292 290 288 289 289 289 285 278 280 281 283 283 281 282 283 280 277 274
279 282 303 288 285 295 308 307 303 306 304 299 296 286 284 283 285 286 286 289 287 278 276 279 281 282 275 270 279 281 282 271
228 266 251 287 316 318 309 309 310 304 302 301 298 299 294 289 284 281 282 284 289 282 278 281 286 279 271 266 273 278 279 276
238 301 289 309 314 313 309 311 310 305 299 296 298 298 293 288 287 284 283 282 284 286 288 284 288 281 277 266 267 268 275 272
Wind_Speed_850mb
6 7 10 1 6 6 11 3 4 7 3 4 9 20 32 38 53 46 47 53 60 43 13 28 46 59 61 62 63 61 54 46
11 14 15 14 5 9 9 1 5 9 9 8 6 12 13 20 35 55 56 55 56 52 17 23 45 58 68 69 69 68 62 55
5 9 2 11 9 9 8 7 7 4 11 11 10 3 6 9 40 49 54 60 68 55 18 22 44 51 54 62 63 68 67 65
3 4 6 10 5 8 9 12 4 8 11 8 12 11 8 15 27 36 47 46 51 50 27 22 36 43 35 25 42 59 67 69
17 12 12 12 8 4 6 5 7 5 11 6 10 17 17 24 33 33 33 33 47 48 34 24 23 22 22 34 37 46 60 70
12 12 7 4 6 4 6 4 5 10 12 14 8 7 8 25 43 44 38 34 35 28 7 14 21 24 31 35 35 42 53 66
8 5 6 10 5 3 5 10 10 13 8 10 12 9 17 46 39 44 40 36 33 27 21 22 23 28 36 30 45 43 39 57
4 7 1 3 5 8 1 4 13 8 5 11 19 44 41 31 34 33 34 29 24 21 22 22 26 25 27 31 16 42 44 50
10 5 6 5 3 9 7 5 7 5 3 9 17 24 29 32 32 32 23 20 17 16 13 11 13 19 27 35 32 26 33 62
6 5 2 9 7 20 22 8 11 10 10 10 11 20 29 28 25 19 19 20 16 12 11 12 14 19 22 28 33 37 34 39
7 8 5 8 4 2 4 3 4 4 10 21 29 13 12 22 22 21 26 24 22 23 21 21 24 27 29 31 30 37 43 37
5 6 13 2 10 18 7 2 3 8 9 16 21 8 10 32 38 35 34 35 41 41 41 43 41 42 40 42 43 38 45 43
1 4 1 8 21 23 6 6 9 9 16 19 8 23 43 49 50 47 47 49 42 38 43 51 54 50 51 53 51 38 38 43
1 1 8 15 4 5 5 4 19 24 34 38 51 58 61 60 62 61 59 57 54 56 55 50 47 49 46 51 56 49 38 39
10 8 6 3 5 13 12 39 43 47 56 59 61 68 71 75 74 73 69 65 59 59 60 59 55 58 62 54 52 51 47 37
5 5 10 19 24 20 40 44 44 46 52 56 66 70 74 76 74 74 74 75 67 58 62 64 62 62 61 56 54 48 49 40
7 13 25 13 16 40 49 49 53 54 55 57 61 70 75 77 82 83 79 67 58 58 62 65 64 64 58 53 48 48 45 45
9 15 19 38 53 55 57 63 68 69 69 68 66 70 70 75 73 74 74 67 59 63 66 69 70 71 67 60 58 52 52 45
10 18 29 47 58 65 67 76 75 76 74 75 76 70 64 66 68 68 69 68 66 64 61 63 70 69 64 61 58 53 52 48
Wind_Direction_850mb
354 85 105 26 3 196 109 56 6 295 206 335 356 31 45 55 68 91 127 147 139 132 96 268 235 236 233 232 232 232 233 233
312 47 19 97 182 24 9 287 279 293 286 228 324 38 25 43 73 103 133 143 147 147 126 245 235 239 231 232 234 236 238 242
44 34 29 17 16 39 114 125 165 279 267 201 194 225 80 91 103 120 143 153 158 169 178 175 246 241 242 232 237 240 241 243
149 305 355 88 93 106 109 295 186 158 273 253 197 211 222 117 116 117 149 163 178 189 178 209 227 229 243 254 254 253 247 245
346 358 8 55 0 103 108 85 239 128 269 235 263 284 89 142 131 124 125 148 188 196 205 229 247 273 291 261 273 275 255 244
187 200 157 74 351 81 109 116 272 230 286 275 307 30 118 134 130 124 112 122 151 175 193 329 313 316 296 274 247 264 258 244
233 232 192 185 183 260 210 222 188 257 266 335 331 329 185 139 119 115 109 101 95 93 66 28 5 357 358 312 249 248 256 253
268 228 329 222 307 254 35 345 260 78 68 353 29 78 75 84 98 100 104 101 89 70 47 18 5 10 8 359 310 256 253 254
247 318 332 339 246 102 108 4 247 146 340 351 40 57 62 60 62 63 77 88 92 94 78 20 1 352 353 356 341 320 291 252
210 43 233 269 83 112 110 40 9 46 25 38 106 106 65 38 30 40 35 32 34 35 33 12 344 327 332 335 332 327 315 299
151 184 270 155 297 67 157 205 334 40 355 8 4 271 238 21 22 8 352 343 335 341 333 325 327 327 314 312 324 321 317 324
126 167 214 313 317 336 152 253 279 354 1 343 352 344 264 320 323 316 311 300 302 302 306 306 304 300 297 301 306 313 316 315
77 235 11 323 304 322 179 239 353 344 321 312 279 266 293 293 296 298 297 295 292 292 288 289 292 295 287 288 287 292 299 311
48 263 256 349 323 5 180 45 329 306 305 295 293 290 288 286 285 285 285 285 289 290 284 278 281 290 293 285 290 289 285 298
170 225 206 338 154 163 339 330 320 308 307 306 295 290 291 292 291 288 286 285 286 281 283 283 285 282 285 283 288 285 279 287
53 237 242 298 274 248 315 308 303 302 302 300 294 294 292 290 288 289 289 289 285 278 280 281 283 283 281 282 283 280 277 274
279 282 303 288 285 295 308 307 303 306 304 299 296 286 284 283 285 286 286 289 287 278 276 279 281 282 275 270 279 281 282 271
228 266 251 287 316 318 309 309 310 304 302 301 298 299 294 289 284 281 282 284 289 282 278 281 286 279 271 266 273 278 279 276
238 301 289 309 314 313 309 311 310 305 299 296 298 298 293 288 287 284 283 282 284 286 288 284 288 281 277 266 267 268 275 272